User: anonymous   Login
Location: Nairn
(57.5833°N, 3.8667°W)
Time: 12:20:28
(UTC+00:00)
Language:

Cosmos 1486 Rocket - Orbit

View from above orbital plane
View from above orbital plane
View from above satellite
View from above satellite

Ground track
Ground track

The orbit data is extracted from the following two-line orbital elements,

1 14241U 83079B   20293.94019555 +.00000050 +00000-0 +26213-4 0  9996
2 14241 074.0598 166.8596 0018232 294.7787 065.1469 14.36193136948052
Epoch (UTC): 19 October 2020 22:33:52
Eccentricity: 0.0018232
inclination: 74.0598°
perigee height: 758 km
apogee height: 784 km
right ascension of ascending node: 166.8596°
argument of perigee: 294.7787°
revolutions per day: 14.36193136
mean anomaly at epoch: 65.1469°
orbit number at epoch: 94805

The dashed part of the orbit path shows where the satellite is in the earth's shadow,  

DLR